Preview of NWS' New Version of Forecast
This preview is not operational and should not be used for support decisions.

Regional Weather Roundup (RWR)

Issued by National Weather Service (NWS)

                            
000
ASUS44 KJAN 192010
RWRMS 

MISSISSIPPI HOURLY WEATHER ROUNDUP
NATIONAL WEATHER SERVICE JACKSON MS
300 PM CDT FRI APR 19 2019

NOTE: "FAIR: INDICATES FEW OR NO CLOUDS BELOW 12,000 FEET WITH NO
SIGNIFICANT WEATHER AND/OR OBSTRUCTIONS TO VISIBILITY.

MSZ001>002-007>008-010>013-018>021-025>028-034>036-192100-
NORTHWEST MISSISSIPPI
  
CITY           SKY/WX    TMP DP  RH WIND       PRES   REMARKS
BATESVILLE     MOCLDY    52  45  76 NW7G15    29.78S                  
CLARKSDALE     PTSUNNY   54  46  76 NW16G22   29.81F                  
CLEVELAND      CLOUDY    50  44  79 N9        29.83S                  
GREENWOOD      CLOUDY    52  45  77 N8        29.81R                  
GREENVILLE     CLOUDY    55  41  59 N20G28    29.82S                  
OLIVE BRANCH   LGT RAIN  46  46 100 NW17G29   29.77S                  
OXFORD         DRIZZLE   46  43  87 NW14G24   29.77S                  
TUNICA           N/A     50  41  71 NW18G28   29.80S                  
WINONA         CLOUDY    51  43  74 NW13G18   29.78F                  
$$

MSZ003>006-009-014>017-022>024-029>033-037>039-192100-
NORTHEAST MISSISSIPPI
  
CITY           SKY/WX    TMP DP  RH WIND       PRES   REMARKS
ABERDEEN       DRIZZLE   48  48 100 NW16G23   29.72S                  
COLUMBUS AFB   LGT RAIN  52  46  82 NW18G28   29.70F                  
CORINTH        RAIN      48  45  87 NW15G25   29.68S                  
GOLDN TRIANGLE CLOUDY    52  45  77 NW15G22   29.72F                  
STARKVILLE     CLOUDY    52  43  71 NW9G21    29.75S                  
TUPELO         LGT RAIN  49  44  83 NW9       29.71R                  
$$

MSZ040-058-192100-
CENTRAL MISSISSIPPI
  
CITY           SKY/WX    TMP DP  RH WIND       PRES   REMARKS
JACKSON INTL   PTSUNNY   56  41  57 NW16G32   29.82R                  
JACKSON HAWKNS CLOUDY    55  45  68 N8G22     29.82R                  
MADISON        MOCLDY    52  46  82 NW13G20   29.80S                  
MERIDIAN KEY   PTSUNNY   57  45  64 NW15G25   29.75F                  
MERIDIAN NAS   CLOUDY    57  44  62 NW22G32   29.75F                  
RAYMOND        MOCLDY    59  48  67 W13       29.80F                  
VICKSBURG VKS  PTCLDY    61  43  51 NW15G26   29.84S                  
$$

MSZ059>079-192100-
SOUTH MISSISSIPPI
  
CITY           SKY/WX    TMP DP  RH WIND       PRES   REMARKS
HATTIESBURG    FAIR      61  48  62 NW15G21   29.79S                  
LAUREL         MOCLDY    56  48  72 W10       29.78R                  
MCCOMB         CLOUDY    57  47  69 N8        29.82F                  
NATCHEZ        RAIN      55  44  66 SW17G33   29.85S                  
PINE BELT      LGT RAIN  54  48  80 VRB5      29.80S                  
$$

MSZ080>082-192100-
COASTAL MISSISSIPPI
  
CITY           SKY/WX    TMP DP  RH WIND       PRES   REMARKS
BAY ST LOUIS   PTSUNNY   64  43  45 NW15G23   29.79F                  
BILOXI         PTSUNNY   67  46  46 NW14G24   29.77F                  
PASCAGOULA     PTSUNNY   69  44  40 W13G24    29.77S                  
GULFPORT       PTSUNNY   67  44  43 W14G26    29.78S                  
$$

LAZ007>009-015>016-023>026-192100-
NORTHEAST LOUISIANA
  
CITY           SKY/WX    TMP DP  RH WIND       PRES   REMARKS
BASTROP        CLOUDY    59  39  47 NW15G28   29.87S                  
TALLULAH/VBURG LGT RAIN  54  47  77 W15G32    29.86R                  
VIDALIA        CLOUDY    56  50  79 W15       29.87R                  
$$